Index of /20260430/WXO-DD/model_rdps/10km/12/012
Name Last modified Size Description
Parent Directory -
20260430T12Z_MSC_RDPS_AbsoluteVorticity_IsbL-0250_RLatLon0.09_PT012H.grib2 2026-04-30 14:42 618K
20260430T12Z_MSC_RDPS_AbsoluteVorticity_IsbL-0500_RLatLon0.09_PT012H.grib2 2026-04-30 14:42 572K
20260430T12Z_MSC_RDPS_AbsoluteVorticity_IsbL-0700_RLatLon0.09_PT012H.grib2 2026-04-30 14:42 632K
20260430T12Z_MSC_RDPS_AbsoluteVorticity_IsbL-0850_RLatLon0.09_PT012H.grib2 2026-04-30 14:42 772K
20260430T12Z_MSC_RDPS_AirTemp_AGL-120m_RLatLon0.09_PT012H.grib2 2026-04-30 14:42 386K
20260430T12Z_MSC_RDPS_AirTemp_AGL-2m_RLatLon0.09_PT012H.grib2 2026-04-30 14:42 619K
20260430T12Z_MSC_RDPS_AirTemp_AGL-40m_RLatLon0.09_PT012H.grib2 2026-04-30 14:42 396K
20260430T12Z_MSC_RDPS_AirTemp_AGL-80m_RLatLon0.09_PT012H.grib2 2026-04-30 14:42 390K
20260430T12Z_MSC_RDPS_AirTemp_IsbL-0001_RLatLon0.09_PT012H.grib2 2026-04-30 14:42 261K
20260430T12Z_MSC_RDPS_AirTemp_IsbL-0005_RLatLon0.09_PT012H.grib2 2026-04-30 14:42 283K
20260430T12Z_MSC_RDPS_AirTemp_IsbL-0010_RLatLon0.09_PT012H.grib2 2026-04-30 14:42 296K
20260430T12Z_MSC_RDPS_AirTemp_IsbL-0020_RLatLon0.09_PT012H.grib2 2026-04-30 14:42 310K
20260430T12Z_MSC_RDPS_AirTemp_IsbL-0030_RLatLon0.09_PT012H.grib2 2026-04-30 14:42 332K
20260430T12Z_MSC_RDPS_AirTemp_IsbL-0050_RLatLon0.09_PT012H.grib2 2026-04-30 14:42 307K
20260430T12Z_MSC_RDPS_AirTemp_IsbL-0100_RLatLon0.09_PT012H.grib2 2026-04-30 14:42 419K
20260430T12Z_MSC_RDPS_AirTemp_IsbL-0150_RLatLon0.09_PT012H.grib2 2026-04-30 14:42 424K
20260430T12Z_MSC_RDPS_AirTemp_IsbL-0175_RLatLon0.09_PT012H.grib2 2026-04-30 14:42 413K
20260430T12Z_MSC_RDPS_AirTemp_IsbL-0200_RLatLon0.09_PT012H.grib2 2026-04-30 14:42 418K
20260430T12Z_MSC_RDPS_AirTemp_IsbL-0225_RLatLon0.09_PT012H.grib2 2026-04-30 14:42 420K
20260430T12Z_MSC_RDPS_AirTemp_IsbL-0250_RLatLon0.09_PT012H.grib2 2026-04-30 14:42 428K
20260430T12Z_MSC_RDPS_AirTemp_IsbL-0275_RLatLon0.09_PT012H.grib2 2026-04-30 14:42 408K
20260430T12Z_MSC_RDPS_AirTemp_IsbL-0300_RLatLon0.09_PT012H.grib2 2026-04-30 14:42 414K
20260430T12Z_MSC_RDPS_AirTemp_IsbL-0350_RLatLon0.09_PT012H.grib2 2026-04-30 14:42 428K
20260430T12Z_MSC_RDPS_AirTemp_IsbL-0400_RLatLon0.09_PT012H.grib2 2026-04-30 14:42 429K
20260430T12Z_MSC_RDPS_AirTemp_IsbL-0450_RLatLon0.09_PT012H.grib2 2026-04-30 14:42 435K
20260430T12Z_MSC_RDPS_AirTemp_IsbL-0500_RLatLon0.09_PT012H.grib2 2026-04-30 14:42 412K
20260430T12Z_MSC_RDPS_AirTemp_IsbL-0550_RLatLon0.09_PT012H.grib2 2026-04-30 14:42 432K
20260430T12Z_MSC_RDPS_AirTemp_IsbL-0600_RLatLon0.09_PT012H.grib2 2026-04-30 14:42 452K
20260430T12Z_MSC_RDPS_AirTemp_IsbL-0650_RLatLon0.09_PT012H.grib2 2026-04-30 14:42 469K
20260430T12Z_MSC_RDPS_AirTemp_IsbL-0700_RLatLon0.09_PT012H.grib2 2026-04-30 14:42 384K
20260430T12Z_MSC_RDPS_AirTemp_IsbL-0750_RLatLon0.09_PT012H.grib2 2026-04-30 14:42 412K
20260430T12Z_MSC_RDPS_AirTemp_IsbL-0800_RLatLon0.09_PT012H.grib2 2026-04-30 14:42 445K
20260430T12Z_MSC_RDPS_AirTemp_IsbL-0850_RLatLon0.09_PT012H.grib2 2026-04-30 14:42 487K
20260430T12Z_MSC_RDPS_AirTemp_IsbL-0875_RLatLon0.09_PT012H.grib2 2026-04-30 14:42 507K
20260430T12Z_MSC_RDPS_AirTemp_IsbL-0900_RLatLon0.09_PT012H.grib2 2026-04-30 14:42 517K
20260430T12Z_MSC_RDPS_AirTemp_IsbL-0925_RLatLon0.09_PT012H.grib2 2026-04-30 14:42 517K
20260430T12Z_MSC_RDPS_AirTemp_IsbL-0950_RLatLon0.09_PT012H.grib2 2026-04-30 14:42 517K
20260430T12Z_MSC_RDPS_AirTemp_IsbL-0970_RLatLon0.09_PT012H.grib2 2026-04-30 14:42 511K
20260430T12Z_MSC_RDPS_AirTemp_IsbL-0985_RLatLon0.09_PT012H.grib2 2026-04-30 14:42 503K
20260430T12Z_MSC_RDPS_AirTemp_IsbL-1000_RLatLon0.09_PT012H.grib2 2026-04-30 14:42 502K
20260430T12Z_MSC_RDPS_AirTemp_IsbL-1015_RLatLon0.09_PT012H.grib2 2026-04-30 14:42 499K
20260430T12Z_MSC_RDPS_Albedo_Sfc_RLatLon0.09_PT012H.grib2 2026-04-30 14:42 157K
20260430T12Z_MSC_RDPS_CAPE_Sfc_RLatLon0.09_PT012H.grib2 2026-04-30 14:42 1.7M
20260430T12Z_MSC_RDPS_CIN_Sfc_RLatLon0.09_PT012H.grib2 2026-04-30 14:42 1.3M
20260430T12Z_MSC_RDPS_CloudWater_EAtm_RLatLon0.09_PT012H.grib2 2026-04-30 14:42 222K
20260430T12Z_MSC_RDPS_ConvectivePrecip-Accum_Sfc_RLatLon0.09_PT012H.grib2 2026-04-30 14:42 650K
20260430T12Z_MSC_RDPS_DewPointDepression_AGL-2m_RLatLon0.09_PT012H.grib2 2026-04-30 14:42 408K
20260430T12Z_MSC_RDPS_DewPointDepression_IsbL-0001_RLatLon0.09_PT012H.grib2 2026-04-30 14:42 193
20260430T12Z_MSC_RDPS_DewPointDepression_IsbL-0005_RLatLon0.09_PT012H.grib2 2026-04-30 14:42 193
20260430T12Z_MSC_RDPS_DewPointDepression_IsbL-0010_RLatLon0.09_PT012H.grib2 2026-04-30 14:42 193
20260430T12Z_MSC_RDPS_DewPointDepression_IsbL-0020_RLatLon0.09_PT012H.grib2 2026-04-30 14:42 193
20260430T12Z_MSC_RDPS_DewPointDepression_IsbL-0030_RLatLon0.09_PT012H.grib2 2026-04-30 14:42 193
20260430T12Z_MSC_RDPS_DewPointDepression_IsbL-0050_RLatLon0.09_PT012H.grib2 2026-04-30 14:42 80K
20260430T12Z_MSC_RDPS_DewPointDepression_IsbL-0100_RLatLon0.09_PT012H.grib2 2026-04-30 14:42 129K
20260430T12Z_MSC_RDPS_DewPointDepression_IsbL-0150_RLatLon0.09_PT012H.grib2 2026-04-30 14:42 151K
20260430T12Z_MSC_RDPS_DewPointDepression_IsbL-0175_RLatLon0.09_PT012H.grib2 2026-04-30 14:42 184K
20260430T12Z_MSC_RDPS_DewPointDepression_IsbL-0200_RLatLon0.09_PT012H.grib2 2026-04-30 14:42 222K
20260430T12Z_MSC_RDPS_DewPointDepression_IsbL-0225_RLatLon0.09_PT012H.grib2 2026-04-30 14:42 267K
20260430T12Z_MSC_RDPS_DewPointDepression_IsbL-0250_RLatLon0.09_PT012H.grib2 2026-04-30 14:42 306K
20260430T12Z_MSC_RDPS_DewPointDepression_IsbL-0275_RLatLon0.09_PT012H.grib2 2026-04-30 14:42 311K
20260430T12Z_MSC_RDPS_DewPointDepression_IsbL-0300_RLatLon0.09_PT012H.grib2 2026-04-30 14:42 332K
20260430T12Z_MSC_RDPS_DewPointDepression_IsbL-0350_RLatLon0.09_PT012H.grib2 2026-04-30 14:42 338K
20260430T12Z_MSC_RDPS_DewPointDepression_IsbL-0400_RLatLon0.09_PT012H.grib2 2026-04-30 14:42 346K
20260430T12Z_MSC_RDPS_DewPointDepression_IsbL-0450_RLatLon0.09_PT012H.grib2 2026-04-30 14:42 352K
20260430T12Z_MSC_RDPS_DewPointDepression_IsbL-0500_RLatLon0.09_PT012H.grib2 2026-04-30 14:42 357K
20260430T12Z_MSC_RDPS_DewPointDepression_IsbL-0550_RLatLon0.09_PT012H.grib2 2026-04-30 14:42 369K
20260430T12Z_MSC_RDPS_DewPointDepression_IsbL-0600_RLatLon0.09_PT012H.grib2 2026-04-30 14:42 384K
20260430T12Z_MSC_RDPS_DewPointDepression_IsbL-0650_RLatLon0.09_PT012H.grib2 2026-04-30 14:42 391K
20260430T12Z_MSC_RDPS_DewPointDepression_IsbL-0700_RLatLon0.09_PT012H.grib2 2026-04-30 14:42 401K
20260430T12Z_MSC_RDPS_DewPointDepression_IsbL-0750_RLatLon0.09_PT012H.grib2 2026-04-30 14:42 418K
20260430T12Z_MSC_RDPS_DewPointDepression_IsbL-0800_RLatLon0.09_PT012H.grib2 2026-04-30 14:42 444K
20260430T12Z_MSC_RDPS_DewPointDepression_IsbL-0850_RLatLon0.09_PT012H.grib2 2026-04-30 14:42 465K
20260430T12Z_MSC_RDPS_DewPointDepression_IsbL-0875_RLatLon0.09_PT012H.grib2 2026-04-30 14:42 472K
20260430T12Z_MSC_RDPS_DewPointDepression_IsbL-0900_RLatLon0.09_PT012H.grib2 2026-04-30 14:42 466K
20260430T12Z_MSC_RDPS_DewPointDepression_IsbL-0925_RLatLon0.09_PT012H.grib2 2026-04-30 14:42 452K
20260430T12Z_MSC_RDPS_DewPointDepression_IsbL-0950_RLatLon0.09_PT012H.grib2 2026-04-30 14:42 444K
20260430T12Z_MSC_RDPS_DewPointDepression_IsbL-0970_RLatLon0.09_PT012H.grib2 2026-04-30 14:42 433K
20260430T12Z_MSC_RDPS_DewPointDepression_IsbL-0985_RLatLon0.09_PT012H.grib2 2026-04-30 14:42 428K
20260430T12Z_MSC_RDPS_DewPointDepression_IsbL-1000_RLatLon0.09_PT012H.grib2 2026-04-30 14:42 423K
20260430T12Z_MSC_RDPS_DewPointDepression_IsbL-1015_RLatLon0.09_PT012H.grib2 2026-04-30 14:42 411K
20260430T12Z_MSC_RDPS_DewPoint_AGL-2m_RLatLon0.09_PT012H.grib2 2026-04-30 14:42 308K
20260430T12Z_MSC_RDPS_DownwardLongwaveRadiationFlux-Accum_Sfc_RLatLon0.09_PT012H.grib2 2026-04-30 14:42 460K
20260430T12Z_MSC_RDPS_DownwardShortwaveRadiationFlux-Accum_NTAtm_RLatLon0.09_PT012H.grib2 2026-04-30 14:42 109K
20260430T12Z_MSC_RDPS_DownwardShortwaveRadiationFlux-Accum_Sfc_RLatLon0.09_PT012H.grib2 2026-04-30 14:42 581K
20260430T12Z_MSC_RDPS_FreezingRain-Accum12h_Sfc_RLatLon0.09_PT012H.grib2 2026-04-30 14:42 59K
20260430T12Z_MSC_RDPS_FreezingRain-Accum1h_Sfc_RLatLon0.09_PT012H.grib2 2026-04-30 14:42 18K
20260430T12Z_MSC_RDPS_FreezingRain-Accum3h_Sfc_RLatLon0.09_PT012H.grib2 2026-04-30 14:42 22K
20260430T12Z_MSC_RDPS_FreezingRain-Accum6h_Sfc_RLatLon0.09_PT012H.grib2 2026-04-30 14:42 29K
20260430T12Z_MSC_RDPS_FreezingRain-Accum_Sfc_RLatLon0.09_PT012H.grib2 2026-04-30 14:42 67K
20260430T12Z_MSC_RDPS_GeopotentialHeight_IsbL-0001_RLatLon0.09_PT012H.grib2 2026-04-30 14:42 239K
20260430T12Z_MSC_RDPS_GeopotentialHeight_IsbL-0005_RLatLon0.09_PT012H.grib2 2026-04-30 14:42 334K
20260430T12Z_MSC_RDPS_GeopotentialHeight_IsbL-0010_RLatLon0.09_PT012H.grib2 2026-04-30 14:42 302K
20260430T12Z_MSC_RDPS_GeopotentialHeight_IsbL-0020_RLatLon0.09_PT012H.grib2 2026-04-30 14:42 300K
20260430T12Z_MSC_RDPS_GeopotentialHeight_IsbL-0030_RLatLon0.09_PT012H.grib2 2026-04-30 14:42 302K
20260430T12Z_MSC_RDPS_GeopotentialHeight_IsbL-0050_RLatLon0.09_PT012H.grib2 2026-04-30 14:42 303K
20260430T12Z_MSC_RDPS_GeopotentialHeight_IsbL-0100_RLatLon0.09_PT012H.grib2 2026-04-30 14:42 282K
20260430T12Z_MSC_RDPS_GeopotentialHeight_IsbL-0150_RLatLon0.09_PT012H.grib2 2026-04-30 14:42 227K
20260430T12Z_MSC_RDPS_GeopotentialHeight_IsbL-0175_RLatLon0.09_PT012H.grib2 2026-04-30 14:42 261K
20260430T12Z_MSC_RDPS_GeopotentialHeight_IsbL-0200_RLatLon0.09_PT012H.grib2 2026-04-30 14:42 264K
20260430T12Z_MSC_RDPS_GeopotentialHeight_IsbL-0225_RLatLon0.09_PT012H.grib2 2026-04-30 14:42 266K
20260430T12Z_MSC_RDPS_GeopotentialHeight_IsbL-0250_RLatLon0.09_PT012H.grib2 2026-04-30 14:42 267K
20260430T12Z_MSC_RDPS_GeopotentialHeight_IsbL-0275_RLatLon0.09_PT012H.grib2 2026-04-30 14:42 267K
20260430T12Z_MSC_RDPS_GeopotentialHeight_IsbL-0300_RLatLon0.09_PT012H.grib2 2026-04-30 14:42 266K
20260430T12Z_MSC_RDPS_GeopotentialHeight_IsbL-0350_RLatLon0.09_PT012H.grib2 2026-04-30 14:42 232K
20260430T12Z_MSC_RDPS_GeopotentialHeight_IsbL-0400_RLatLon0.09_PT012H.grib2 2026-04-30 14:42 229K
20260430T12Z_MSC_RDPS_GeopotentialHeight_IsbL-0450_RLatLon0.09_PT012H.grib2 2026-04-30 14:42 297K
20260430T12Z_MSC_RDPS_GeopotentialHeight_IsbL-0500_RLatLon0.09_PT012H.grib2 2026-04-30 14:42 291K
20260430T12Z_MSC_RDPS_GeopotentialHeight_IsbL-0550_RLatLon0.09_PT012H.grib2 2026-04-30 14:42 288K
20260430T12Z_MSC_RDPS_GeopotentialHeight_IsbL-0600_RLatLon0.09_PT012H.grib2 2026-04-30 14:42 257K
20260430T12Z_MSC_RDPS_GeopotentialHeight_IsbL-0650_RLatLon0.09_PT012H.grib2 2026-04-30 14:42 254K
20260430T12Z_MSC_RDPS_GeopotentialHeight_IsbL-0700_RLatLon0.09_PT012H.grib2 2026-04-30 14:42 334K
20260430T12Z_MSC_RDPS_GeopotentialHeight_IsbL-0750_RLatLon0.09_PT012H.grib2 2026-04-30 14:42 336K
20260430T12Z_MSC_RDPS_GeopotentialHeight_IsbL-0800_RLatLon0.09_PT012H.grib2 2026-04-30 14:42 341K
20260430T12Z_MSC_RDPS_GeopotentialHeight_IsbL-0850_RLatLon0.09_PT012H.grib2 2026-04-30 14:42 348K
20260430T12Z_MSC_RDPS_GeopotentialHeight_IsbL-0875_RLatLon0.09_PT012H.grib2 2026-04-30 14:42 349K
20260430T12Z_MSC_RDPS_GeopotentialHeight_IsbL-0900_RLatLon0.09_PT012H.grib2 2026-04-30 14:42 354K
20260430T12Z_MSC_RDPS_GeopotentialHeight_IsbL-0925_RLatLon0.09_PT012H.grib2 2026-04-30 14:42 390K
20260430T12Z_MSC_RDPS_GeopotentialHeight_IsbL-0950_RLatLon0.09_PT012H.grib2 2026-04-30 14:42 394K
20260430T12Z_MSC_RDPS_GeopotentialHeight_IsbL-0970_RLatLon0.09_PT012H.grib2 2026-04-30 14:42 368K
20260430T12Z_MSC_RDPS_GeopotentialHeight_IsbL-0985_RLatLon0.09_PT012H.grib2 2026-04-30 14:42 376K
20260430T12Z_MSC_RDPS_GeopotentialHeight_IsbL-1000_RLatLon0.09_PT012H.grib2 2026-04-30 14:42 387K
20260430T12Z_MSC_RDPS_GeopotentialHeight_IsbL-1015_RLatLon0.09_PT012H.grib2 2026-04-30 14:42 401K
20260430T12Z_MSC_RDPS_Humidex_Sfc_RLatLon0.09_PT012H.grib2 2026-04-30 14:42 2.2M
20260430T12Z_MSC_RDPS_IcePellets-Accum12h_Sfc_RLatLon0.09_PT012H.grib2 2026-04-30 14:42 5.0K
20260430T12Z_MSC_RDPS_IcePellets-Accum1h_Sfc_RLatLon0.09_PT012H.grib2 2026-04-30 14:42 1.2K
20260430T12Z_MSC_RDPS_IcePellets-Accum3h_Sfc_RLatLon0.09_PT012H.grib2 2026-04-30 14:42 2.3K
20260430T12Z_MSC_RDPS_IcePellets-Accum6h_Sfc_RLatLon0.09_PT012H.grib2 2026-04-30 14:42 3.6K
20260430T12Z_MSC_RDPS_IcePellets-Accum_Sfc_RLatLon0.09_PT012H.grib2 2026-04-30 14:42 5.3K
20260430T12Z_MSC_RDPS_KIndex_Sfc_RLatLon0.09_PT012H.grib2 2026-04-30 14:42 2.5M
20260430T12Z_MSC_RDPS_LatentHeatNetFlux_Sfc_RLatLon0.09_PT012H.grib2 2026-04-30 14:42 344K
20260430T12Z_MSC_RDPS_LiftedIndex-MU-VT_IsbL-0500_RLatLon0.09_PT012H.grib2 2026-04-30 14:42 2.4M
20260430T12Z_MSC_RDPS_NetLongwaveRadiationFlux-Accum_Sfc_RLatLon0.09_PT012H.grib2 2026-04-30 14:42 619K
20260430T12Z_MSC_RDPS_NetShortwaveRadiationFlux-Accum_Sfc_RLatLon0.09_PT012H.grib2 2026-04-30 14:42 577K
20260430T12Z_MSC_RDPS_PlanetaryBoundaryLayerHeight_Sfc_RLatLon0.09_PT012H.grib2 2026-04-30 14:42 1.0M
20260430T12Z_MSC_RDPS_Precip-Accum12h_Sfc_RLatLon0.09_PT012H.grib2 2026-04-30 14:42 1.5M
20260430T12Z_MSC_RDPS_Precip-Accum1h_Sfc_RLatLon0.09_PT012H.grib2 2026-04-30 14:42 1.1M
20260430T12Z_MSC_RDPS_Precip-Accum3h_Sfc_RLatLon0.09_PT012H.grib2 2026-04-30 14:42 1.2M
20260430T12Z_MSC_RDPS_Precip-Accum6h_Sfc_RLatLon0.09_PT012H.grib2 2026-04-30 14:42 1.4M
20260430T12Z_MSC_RDPS_Precip-Accum_Sfc_RLatLon0.09_PT012H.grib2 2026-04-30 14:42 1.5M
20260430T12Z_MSC_RDPS_PrecipRate_Sfc_RLatLon0.09_PT012H.grib2 2026-04-30 14:42 170K
20260430T12Z_MSC_RDPS_PrecipType-Instant_Sfc_RLatLon0.09_PT012H.grib2 2026-04-30 14:42 558K
20260430T12Z_MSC_RDPS_Pressure-Trend3h_Sfc_RLatLon0.09_PT012H.grib2 2026-04-30 14:42 1.2M
20260430T12Z_MSC_RDPS_Pressure_MSL_RLatLon0.09_PT012H.grib2 2026-04-30 14:42 323K
20260430T12Z_MSC_RDPS_Pressure_PVU-1.5_RLatLon0.09_PT012H.grib2 2026-04-30 14:42 2.3M
20260430T12Z_MSC_RDPS_Pressure_PVU-1_RLatLon0.09_PT012H.grib2 2026-04-30 14:42 2.4M
20260430T12Z_MSC_RDPS_Pressure_PVU-2_RLatLon0.09_PT012H.grib2 2026-04-30 14:42 2.4M
20260430T12Z_MSC_RDPS_Pressure_Sfc_RLatLon0.09_PT012H.grib2 2026-04-30 14:42 498K
20260430T12Z_MSC_RDPS_RadiativeTemp_Sfc_RLatLon0.09_PT012H.grib2 2026-04-30 14:42 310K
20260430T12Z_MSC_RDPS_Rain-Accum12h_Sfc_RLatLon0.09_PT012H.grib2 2026-04-30 14:42 1.0M
20260430T12Z_MSC_RDPS_Rain-Accum1h_Sfc_RLatLon0.09_PT012H.grib2 2026-04-30 14:42 583K
20260430T12Z_MSC_RDPS_Rain-Accum3h_Sfc_RLatLon0.09_PT012H.grib2 2026-04-30 14:42 667K
20260430T12Z_MSC_RDPS_Rain-Accum6h_Sfc_RLatLon0.09_PT012H.grib2 2026-04-30 14:42 911K
20260430T12Z_MSC_RDPS_Rain-Accum_Sfc_RLatLon0.09_PT012H.grib2 2026-04-30 14:42 1.1M
20260430T12Z_MSC_RDPS_RelativeHumidity_AGL-2m_RLatLon0.09_PT012H.grib2 2026-04-30 14:42 1.0M
20260430T12Z_MSC_RDPS_RelativeHumidity_IsbL-0010_RLatLon0.09_PT012H.grib2 2026-04-30 14:42 629K
20260430T12Z_MSC_RDPS_RelativeHumidity_IsbL-0020_RLatLon0.09_PT012H.grib2 2026-04-30 14:42 676K
20260430T12Z_MSC_RDPS_RelativeHumidity_IsbL-0030_RLatLon0.09_PT012H.grib2 2026-04-30 14:42 600K
20260430T12Z_MSC_RDPS_RelativeHumidity_IsbL-0050_RLatLon0.09_PT012H.grib2 2026-04-30 14:42 367K
20260430T12Z_MSC_RDPS_RelativeHumidity_IsbL-0100_RLatLon0.09_PT012H.grib2 2026-04-30 14:42 285K
20260430T12Z_MSC_RDPS_RelativeHumidity_IsbL-0150_RLatLon0.09_PT012H.grib2 2026-04-30 14:42 410K
20260430T12Z_MSC_RDPS_RelativeHumidity_IsbL-0175_RLatLon0.09_PT012H.grib2 2026-04-30 14:42 480K
20260430T12Z_MSC_RDPS_RelativeHumidity_IsbL-0200_RLatLon0.09_PT012H.grib2 2026-04-30 14:42 560K
20260430T12Z_MSC_RDPS_RelativeHumidity_IsbL-0225_RLatLon0.09_PT012H.grib2 2026-04-30 14:42 634K
20260430T12Z_MSC_RDPS_RelativeHumidity_IsbL-0250_RLatLon0.09_PT012H.grib2 2026-04-30 14:42 708K
20260430T12Z_MSC_RDPS_RelativeHumidity_IsbL-0275_RLatLon0.09_PT012H.grib2 2026-04-30 14:42 732K
20260430T12Z_MSC_RDPS_RelativeHumidity_IsbL-0300_RLatLon0.09_PT012H.grib2 2026-04-30 14:42 778K
20260430T12Z_MSC_RDPS_RelativeHumidity_IsbL-0350_RLatLon0.09_PT012H.grib2 2026-04-30 14:42 795K
20260430T12Z_MSC_RDPS_RelativeHumidity_IsbL-0400_RLatLon0.09_PT012H.grib2 2026-04-30 14:42 804K
20260430T12Z_MSC_RDPS_RelativeHumidity_IsbL-0450_RLatLon0.09_PT012H.grib2 2026-04-30 14:42 807K
20260430T12Z_MSC_RDPS_RelativeHumidity_IsbL-0500_RLatLon0.09_PT012H.grib2 2026-04-30 14:42 820K
20260430T12Z_MSC_RDPS_RelativeHumidity_IsbL-0550_RLatLon0.09_PT012H.grib2 2026-04-30 14:42 840K
20260430T12Z_MSC_RDPS_RelativeHumidity_IsbL-0600_RLatLon0.09_PT012H.grib2 2026-04-30 14:42 867K
20260430T12Z_MSC_RDPS_RelativeHumidity_IsbL-0650_RLatLon0.09_PT012H.grib2 2026-04-30 14:42 883K
20260430T12Z_MSC_RDPS_RelativeHumidity_IsbL-0700_RLatLon0.09_PT012H.grib2 2026-04-30 14:42 906K
20260430T12Z_MSC_RDPS_RelativeHumidity_IsbL-0750_RLatLon0.09_PT012H.grib2 2026-04-30 14:42 942K
20260430T12Z_MSC_RDPS_RelativeHumidity_IsbL-0800_RLatLon0.09_PT012H.grib2 2026-04-30 14:42 1.0M
20260430T12Z_MSC_RDPS_RelativeHumidity_IsbL-0850_RLatLon0.09_PT012H.grib2 2026-04-30 14:42 1.0M
20260430T12Z_MSC_RDPS_RelativeHumidity_IsbL-0875_RLatLon0.09_PT012H.grib2 2026-04-30 14:42 1.0M
20260430T12Z_MSC_RDPS_RelativeHumidity_IsbL-0900_RLatLon0.09_PT012H.grib2 2026-04-30 14:42 1.1M
20260430T12Z_MSC_RDPS_RelativeHumidity_IsbL-0925_RLatLon0.09_PT012H.grib2 2026-04-30 14:42 1.1M
20260430T12Z_MSC_RDPS_RelativeHumidity_IsbL-0950_RLatLon0.09_PT012H.grib2 2026-04-30 14:42 1.1M
20260430T12Z_MSC_RDPS_RelativeHumidity_IsbL-0970_RLatLon0.09_PT012H.grib2 2026-04-30 14:42 1.0M
20260430T12Z_MSC_RDPS_RelativeHumidity_IsbL-0985_RLatLon0.09_PT012H.grib2 2026-04-30 14:42 1.0M
20260430T12Z_MSC_RDPS_RelativeHumidity_IsbL-1000_RLatLon0.09_PT012H.grib2 2026-04-30 14:42 1.0M
20260430T12Z_MSC_RDPS_RelativeHumidity_IsbL-1015_RLatLon0.09_PT012H.grib2 2026-04-30 14:42 1.0M
20260430T12Z_MSC_RDPS_Runoff-Accum_Sfc_RLatLon0.09_PT012H.grib2 2026-04-30 14:42 53K
20260430T12Z_MSC_RDPS_SWEATIndex_Sfc_RLatLon0.09_PT012H.grib2 2026-04-30 14:42 2.4M
20260430T12Z_MSC_RDPS_SeeingIndex_EAtm_RLatLon0.09_PT012H.grib2 2026-04-30 14:42 1.0M
20260430T12Z_MSC_RDPS_SensibleHeatNetFlux_Sfc_RLatLon0.09_PT012H.grib2 2026-04-30 14:42 305K
20260430T12Z_MSC_RDPS_ShowalterIndex_IsbL-0500_RLatLon0.09_PT012H.grib2 2026-04-30 14:42 2.6M
20260430T12Z_MSC_RDPS_SkyTransparencyIndex_EAtm_RLatLon0.09_PT012H.grib2 2026-04-30 14:42 706K
20260430T12Z_MSC_RDPS_Snow-Accum12h_Sfc_RLatLon0.09_PT012H.grib2 2026-04-30 14:42 586K
20260430T12Z_MSC_RDPS_Snow-Accum1h_Sfc_RLatLon0.09_PT012H.grib2 2026-04-30 14:42 427K
20260430T12Z_MSC_RDPS_Snow-Accum3h_Sfc_RLatLon0.09_PT012H.grib2 2026-04-30 14:42 458K
20260430T12Z_MSC_RDPS_Snow-Accum6h_Sfc_RLatLon0.09_PT012H.grib2 2026-04-30 14:42 549K
20260430T12Z_MSC_RDPS_Snow-Accum_Sfc_RLatLon0.09_PT012H.grib2 2026-04-30 14:42 629K
20260430T12Z_MSC_RDPS_SnowDensity_Sfc_RLatLon0.09_PT012H.grib2 2026-04-30 14:42 170K
20260430T12Z_MSC_RDPS_SnowDepth_Sfc_RLatLon0.09_PT012H.grib2 2026-04-30 14:42 668K
20260430T12Z_MSC_RDPS_SoilTemp_DBS-0to10cm_RLatLon0.09_PT012H.grib2 2026-04-30 14:42 219K
20260430T12Z_MSC_RDPS_SoilTemp_Sfc_RLatLon0.09_PT012H.grib2 2026-04-30 14:42 276K
20260430T12Z_MSC_RDPS_SoilVolumetricIceContent_Sfc_RLatLon0.09_PT012H.grib2 2026-04-30 14:42 162K
20260430T12Z_MSC_RDPS_SoilVolumetricWaterContent_DBS-0to10cm_RLatLon0.09_PT012H.grib2 2026-04-30 14:42 268K
20260430T12Z_MSC_RDPS_SoilVolumetricWaterContent_DBS-0to1cm_RLatLon0.09_PT012H.grib2 2026-04-30 14:42 334K
20260430T12Z_MSC_RDPS_SpecificHumidity_AGL-120m_RLatLon0.09_PT012H.grib2 2026-04-30 14:42 485K
20260430T12Z_MSC_RDPS_SpecificHumidity_AGL-2m_RLatLon0.09_PT012H.grib2 2026-04-30 14:42 654K
20260430T12Z_MSC_RDPS_SpecificHumidity_AGL-40m_RLatLon0.09_PT012H.grib2 2026-04-30 14:42 490K
20260430T12Z_MSC_RDPS_SpecificHumidity_AGL-80m_RLatLon0.09_PT012H.grib2 2026-04-30 14:42 486K
20260430T12Z_MSC_RDPS_SpecificHumidity_IsbL-0001_RLatLon0.09_PT012H.grib2 2026-04-30 14:42 396K
20260430T12Z_MSC_RDPS_SpecificHumidity_IsbL-0005_RLatLon0.09_PT012H.grib2 2026-04-30 14:42 359K
20260430T12Z_MSC_RDPS_SpecificHumidity_IsbL-0010_RLatLon0.09_PT012H.grib2 2026-04-30 14:42 394K
20260430T12Z_MSC_RDPS_SpecificHumidity_IsbL-0020_RLatLon0.09_PT012H.grib2 2026-04-30 14:42 385K
20260430T12Z_MSC_RDPS_SpecificHumidity_IsbL-0030_RLatLon0.09_PT012H.grib2 2026-04-30 14:42 371K
20260430T12Z_MSC_RDPS_SpecificHumidity_IsbL-0050_RLatLon0.09_PT012H.grib2 2026-04-30 14:42 489K
20260430T12Z_MSC_RDPS_SpecificHumidity_IsbL-0100_RLatLon0.09_PT012H.grib2 2026-04-30 14:42 355K
20260430T12Z_MSC_RDPS_SpecificHumidity_IsbL-0150_RLatLon0.09_PT012H.grib2 2026-04-30 14:42 457K
20260430T12Z_MSC_RDPS_SpecificHumidity_IsbL-0175_RLatLon0.09_PT012H.grib2 2026-04-30 14:42 438K
20260430T12Z_MSC_RDPS_SpecificHumidity_IsbL-0200_RLatLon0.09_PT012H.grib2 2026-04-30 14:42 456K
20260430T12Z_MSC_RDPS_SpecificHumidity_IsbL-0225_RLatLon0.09_PT012H.grib2 2026-04-30 14:42 462K
20260430T12Z_MSC_RDPS_SpecificHumidity_IsbL-0250_RLatLon0.09_PT012H.grib2 2026-04-30 14:42 571K
20260430T12Z_MSC_RDPS_SpecificHumidity_IsbL-0275_RLatLon0.09_PT012H.grib2 2026-04-30 14:42 486K
20260430T12Z_MSC_RDPS_SpecificHumidity_IsbL-0300_RLatLon0.09_PT012H.grib2 2026-04-30 14:42 587K
20260430T12Z_MSC_RDPS_SpecificHumidity_IsbL-0350_RLatLon0.09_PT012H.grib2 2026-04-30 14:42 578K
20260430T12Z_MSC_RDPS_SpecificHumidity_IsbL-0400_RLatLon0.09_PT012H.grib2 2026-04-30 14:42 530K
20260430T12Z_MSC_RDPS_SpecificHumidity_IsbL-0450_RLatLon0.09_PT012H.grib2 2026-04-30 14:42 581K
20260430T12Z_MSC_RDPS_SpecificHumidity_IsbL-0500_RLatLon0.09_PT012H.grib2 2026-04-30 14:42 515K
20260430T12Z_MSC_RDPS_SpecificHumidity_IsbL-0550_RLatLon0.09_PT012H.grib2 2026-04-30 14:42 589K
20260430T12Z_MSC_RDPS_SpecificHumidity_IsbL-0600_RLatLon0.09_PT012H.grib2 2026-04-30 14:42 647K
20260430T12Z_MSC_RDPS_SpecificHumidity_IsbL-0650_RLatLon0.09_PT012H.grib2 2026-04-30 14:42 567K
20260430T12Z_MSC_RDPS_SpecificHumidity_IsbL-0700_RLatLon0.09_PT012H.grib2 2026-04-30 14:42 610K
20260430T12Z_MSC_RDPS_SpecificHumidity_IsbL-0750_RLatLon0.09_PT012H.grib2 2026-04-30 14:42 662K
20260430T12Z_MSC_RDPS_SpecificHumidity_IsbL-0800_RLatLon0.09_PT012H.grib2 2026-04-30 14:42 735K
20260430T12Z_MSC_RDPS_SpecificHumidity_IsbL-0850_RLatLon0.09_PT012H.grib2 2026-04-30 14:42 800K
20260430T12Z_MSC_RDPS_SpecificHumidity_IsbL-0875_RLatLon0.09_PT012H.grib2 2026-04-30 14:42 826K
20260430T12Z_MSC_RDPS_SpecificHumidity_IsbL-0900_RLatLon0.09_PT012H.grib2 2026-04-30 14:42 842K
20260430T12Z_MSC_RDPS_SpecificHumidity_IsbL-0925_RLatLon0.09_PT012H.grib2 2026-04-30 14:42 705K
20260430T12Z_MSC_RDPS_SpecificHumidity_IsbL-0950_RLatLon0.09_PT012H.grib2 2026-04-30 14:42 704K
20260430T12Z_MSC_RDPS_SpecificHumidity_IsbL-0970_RLatLon0.09_PT012H.grib2 2026-04-30 14:42 692K
20260430T12Z_MSC_RDPS_SpecificHumidity_IsbL-0985_RLatLon0.09_PT012H.grib2 2026-04-30 14:42 682K
20260430T12Z_MSC_RDPS_SpecificHumidity_IsbL-1000_RLatLon0.09_PT012H.grib2 2026-04-30 14:42 674K
20260430T12Z_MSC_RDPS_SpecificHumidity_IsbL-1015_RLatLon0.09_PT012H.grib2 2026-04-30 14:42 663K
20260430T12Z_MSC_RDPS_SpecificHumidity_Sfc_RLatLon0.09_PT012H.grib2 2026-04-30 14:42 330K
20260430T12Z_MSC_RDPS_StormRelativeHelicity_EtaL-10000_RLatLon0.09_PT012H.grib2 2026-04-30 14:42 1.1M
20260430T12Z_MSC_RDPS_StormSeverityIndex_EtaL-10000_RLatLon0.09_PT012H.grib2 2026-04-30 14:42 1.2M
20260430T12Z_MSC_RDPS_Thickness_IsbL-0850to0700_RLatLon0.09_PT012H.grib2 2026-04-30 14:42 195K
20260430T12Z_MSC_RDPS_Thickness_IsbL-1000to0500_RLatLon0.09_PT012H.grib2 2026-04-30 14:42 137K
20260430T12Z_MSC_RDPS_Thickness_IsbL-1000to0850_RLatLon0.09_PT012H.grib2 2026-04-30 14:42 185K
20260430T12Z_MSC_RDPS_TotalCloudCover_Sfc_RLatLon0.09_PT012H.grib2 2026-04-30 14:42 652K
20260430T12Z_MSC_RDPS_TotalTotalsIndex_Sfc_RLatLon0.09_PT012H.grib2 2026-04-30 14:42 2.4M
20260430T12Z_MSC_RDPS_UVIndex-ClearSky_Sfc_RLatLon0.09_PT012H.grib2 2026-04-30 14:42 186K
20260430T12Z_MSC_RDPS_UVIndex_Sfc_RLatLon0.09_PT012H.grib2 2026-04-30 14:42 394K
20260430T12Z_MSC_RDPS_UpwardLongwaveRadiationFlux_NTAtm_RLatLon0.09_PT012H.grib2 2026-04-30 14:42 498K
20260430T12Z_MSC_RDPS_UpwardShortwaveRadiationFlux_NTAtm_RLatLon0.09_PT012H.grib2 2026-04-30 14:42 339K
20260430T12Z_MSC_RDPS_VerticalVelocity_IsbL-0250_RLatLon0.09_PT012H.grib2 2026-04-30 14:42 555K
20260430T12Z_MSC_RDPS_VerticalVelocity_IsbL-0500_RLatLon0.09_PT012H.grib2 2026-04-30 14:42 545K
20260430T12Z_MSC_RDPS_VerticalVelocity_IsbL-0700_RLatLon0.09_PT012H.grib2 2026-04-30 14:42 597K
20260430T12Z_MSC_RDPS_VerticalVelocity_IsbL-0850_RLatLon0.09_PT012H.grib2 2026-04-30 14:42 704K
20260430T12Z_MSC_RDPS_VerticalWindShear_EtaL-6500_RLatLon0.09_PT012H.grib2 2026-04-30 14:42 1.2M
20260430T12Z_MSC_RDPS_WindChill_Sfc_RLatLon0.09_PT012H.grib2 2026-04-30 14:42 1.1M
20260430T12Z_MSC_RDPS_WindDir_AGL-10m_RLatLon0.09_PT012H.grib2 2026-04-30 14:42 962K
20260430T12Z_MSC_RDPS_WindDir_AGL-120m_RLatLon0.09_PT012H.grib2 2026-04-30 14:42 609K
20260430T12Z_MSC_RDPS_WindDir_AGL-40m_RLatLon0.09_PT012H.grib2 2026-04-30 14:42 633K
20260430T12Z_MSC_RDPS_WindDir_AGL-80m_RLatLon0.09_PT012H.grib2 2026-04-30 14:42 618K
20260430T12Z_MSC_RDPS_WindDir_IsbL-0001_RLatLon0.09_PT012H.grib2 2026-04-30 14:42 307K
20260430T12Z_MSC_RDPS_WindDir_IsbL-0005_RLatLon0.09_PT012H.grib2 2026-04-30 14:42 363K
20260430T12Z_MSC_RDPS_WindDir_IsbL-0010_RLatLon0.09_PT012H.grib2 2026-04-30 14:42 376K
20260430T12Z_MSC_RDPS_WindDir_IsbL-0020_RLatLon0.09_PT012H.grib2 2026-04-30 14:42 422K
20260430T12Z_MSC_RDPS_WindDir_IsbL-0030_RLatLon0.09_PT012H.grib2 2026-04-30 14:42 404K
20260430T12Z_MSC_RDPS_WindDir_IsbL-0050_RLatLon0.09_PT012H.grib2 2026-04-30 14:42 409K
20260430T12Z_MSC_RDPS_WindDir_IsbL-0100_RLatLon0.09_PT012H.grib2 2026-04-30 14:42 428K
20260430T12Z_MSC_RDPS_WindDir_IsbL-0150_RLatLon0.09_PT012H.grib2 2026-04-30 14:42 432K
20260430T12Z_MSC_RDPS_WindDir_IsbL-0175_RLatLon0.09_PT012H.grib2 2026-04-30 14:42 448K
20260430T12Z_MSC_RDPS_WindDir_IsbL-0200_RLatLon0.09_PT012H.grib2 2026-04-30 14:42 458K
20260430T12Z_MSC_RDPS_WindDir_IsbL-0225_RLatLon0.09_PT012H.grib2 2026-04-30 14:42 465K
20260430T12Z_MSC_RDPS_WindDir_IsbL-0250_RLatLon0.09_PT012H.grib2 2026-04-30 14:42 463K
20260430T12Z_MSC_RDPS_WindDir_IsbL-0275_RLatLon0.09_PT012H.grib2 2026-04-30 14:42 484K
20260430T12Z_MSC_RDPS_WindDir_IsbL-0300_RLatLon0.09_PT012H.grib2 2026-04-30 14:42 487K
20260430T12Z_MSC_RDPS_WindDir_IsbL-0350_RLatLon0.09_PT012H.grib2 2026-04-30 14:42 501K
20260430T12Z_MSC_RDPS_WindDir_IsbL-0400_RLatLon0.09_PT012H.grib2 2026-04-30 14:42 512K
20260430T12Z_MSC_RDPS_WindDir_IsbL-0450_RLatLon0.09_PT012H.grib2 2026-04-30 14:42 522K
20260430T12Z_MSC_RDPS_WindDir_IsbL-0500_RLatLon0.09_PT012H.grib2 2026-04-30 14:42 541K
20260430T12Z_MSC_RDPS_WindDir_IsbL-0550_RLatLon0.09_PT012H.grib2 2026-04-30 14:42 565K
20260430T12Z_MSC_RDPS_WindDir_IsbL-0600_RLatLon0.09_PT012H.grib2 2026-04-30 14:42 595K
20260430T12Z_MSC_RDPS_WindDir_IsbL-0650_RLatLon0.09_PT012H.grib2 2026-04-30 14:42 641K
20260430T12Z_MSC_RDPS_WindDir_IsbL-0700_RLatLon0.09_PT012H.grib2 2026-04-30 14:42 697K
20260430T12Z_MSC_RDPS_WindDir_IsbL-0750_RLatLon0.09_PT012H.grib2 2026-04-30 14:42 743K
20260430T12Z_MSC_RDPS_WindDir_IsbL-0800_RLatLon0.09_PT012H.grib2 2026-04-30 14:42 800K
20260430T12Z_MSC_RDPS_WindDir_IsbL-0850_RLatLon0.09_PT012H.grib2 2026-04-30 14:42 859K
20260430T12Z_MSC_RDPS_WindDir_IsbL-0875_RLatLon0.09_PT012H.grib2 2026-04-30 14:42 884K
20260430T12Z_MSC_RDPS_WindDir_IsbL-0900_RLatLon0.09_PT012H.grib2 2026-04-30 14:42 905K
20260430T12Z_MSC_RDPS_WindDir_IsbL-0925_RLatLon0.09_PT012H.grib2 2026-04-30 14:42 913K
20260430T12Z_MSC_RDPS_WindDir_IsbL-0950_RLatLon0.09_PT012H.grib2 2026-04-30 14:42 915K
20260430T12Z_MSC_RDPS_WindDir_IsbL-0970_RLatLon0.09_PT012H.grib2 2026-04-30 14:42 920K
20260430T12Z_MSC_RDPS_WindDir_IsbL-0985_RLatLon0.09_PT012H.grib2 2026-04-30 14:42 929K
20260430T12Z_MSC_RDPS_WindDir_IsbL-1000_RLatLon0.09_PT012H.grib2 2026-04-30 14:42 942K
20260430T12Z_MSC_RDPS_WindDir_IsbL-1015_RLatLon0.09_PT012H.grib2 2026-04-30 14:42 956K
20260430T12Z_MSC_RDPS_WindGust-Max_AGL-10m_RLatLon0.09_PT012H.grib2 2026-04-30 14:42 1.0M
20260430T12Z_MSC_RDPS_WindGust-Min_AGL-10m_RLatLon0.09_PT012H.grib2 2026-04-30 14:42 961K
20260430T12Z_MSC_RDPS_WindGust_AGL-10m_RLatLon0.09_PT012H.grib2 2026-04-30 14:42 1.0M
20260430T12Z_MSC_RDPS_WindSpeed_AGL-10m_RLatLon0.09_PT012H.grib2 2026-04-30 14:42 826K
20260430T12Z_MSC_RDPS_WindSpeed_AGL-120m_RLatLon0.09_PT012H.grib2 2026-04-30 14:42 527K
20260430T12Z_MSC_RDPS_WindSpeed_AGL-40m_RLatLon0.09_PT012H.grib2 2026-04-30 14:42 530K
20260430T12Z_MSC_RDPS_WindSpeed_AGL-80m_RLatLon0.09_PT012H.grib2 2026-04-30 14:42 527K
20260430T12Z_MSC_RDPS_WindSpeed_IsbL-0001_RLatLon0.09_PT012H.grib2 2026-04-30 14:42 249K
20260430T12Z_MSC_RDPS_WindSpeed_IsbL-0005_RLatLon0.09_PT012H.grib2 2026-04-30 14:42 377K
20260430T12Z_MSC_RDPS_WindSpeed_IsbL-0010_RLatLon0.09_PT012H.grib2 2026-04-30 14:42 391K
20260430T12Z_MSC_RDPS_WindSpeed_IsbL-0020_RLatLon0.09_PT012H.grib2 2026-04-30 14:42 319K
20260430T12Z_MSC_RDPS_WindSpeed_IsbL-0030_RLatLon0.09_PT012H.grib2 2026-04-30 14:42 319K
20260430T12Z_MSC_RDPS_WindSpeed_IsbL-0050_RLatLon0.09_PT012H.grib2 2026-04-30 14:42 343K
20260430T12Z_MSC_RDPS_WindSpeed_IsbL-0100_RLatLon0.09_PT012H.grib2 2026-04-30 14:42 473K
20260430T12Z_MSC_RDPS_WindSpeed_IsbL-0150_RLatLon0.09_PT012H.grib2 2026-04-30 14:42 407K
20260430T12Z_MSC_RDPS_WindSpeed_IsbL-0175_RLatLon0.09_PT012H.grib2 2026-04-30 14:42 430K
20260430T12Z_MSC_RDPS_WindSpeed_IsbL-0200_RLatLon0.09_PT012H.grib2 2026-04-30 14:42 447K
20260430T12Z_MSC_RDPS_WindSpeed_IsbL-0225_RLatLon0.09_PT012H.grib2 2026-04-30 14:42 455K
20260430T12Z_MSC_RDPS_WindSpeed_IsbL-0250_RLatLon0.09_PT012H.grib2 2026-04-30 14:42 459K
20260430T12Z_MSC_RDPS_WindSpeed_IsbL-0275_RLatLon0.09_PT012H.grib2 2026-04-30 14:42 477K
20260430T12Z_MSC_RDPS_WindSpeed_IsbL-0300_RLatLon0.09_PT012H.grib2 2026-04-30 14:42 473K
20260430T12Z_MSC_RDPS_WindSpeed_IsbL-0350_RLatLon0.09_PT012H.grib2 2026-04-30 14:42 484K
20260430T12Z_MSC_RDPS_WindSpeed_IsbL-0400_RLatLon0.09_PT012H.grib2 2026-04-30 14:42 485K
20260430T12Z_MSC_RDPS_WindSpeed_IsbL-0450_RLatLon0.09_PT012H.grib2 2026-04-30 14:42 485K
20260430T12Z_MSC_RDPS_WindSpeed_IsbL-0500_RLatLon0.09_PT012H.grib2 2026-04-30 14:42 486K
20260430T12Z_MSC_RDPS_WindSpeed_IsbL-0550_RLatLon0.09_PT012H.grib2 2026-04-30 14:42 470K
20260430T12Z_MSC_RDPS_WindSpeed_IsbL-0600_RLatLon0.09_PT012H.grib2 2026-04-30 14:42 478K
20260430T12Z_MSC_RDPS_WindSpeed_IsbL-0650_RLatLon0.09_PT012H.grib2 2026-04-30 14:42 619K
20260430T12Z_MSC_RDPS_WindSpeed_IsbL-0700_RLatLon0.09_PT012H.grib2 2026-04-30 14:42 646K
20260430T12Z_MSC_RDPS_WindSpeed_IsbL-0750_RLatLon0.09_PT012H.grib2 2026-04-30 14:42 674K
20260430T12Z_MSC_RDPS_WindSpeed_IsbL-0800_RLatLon0.09_PT012H.grib2 2026-04-30 14:42 756K
20260430T12Z_MSC_RDPS_WindSpeed_IsbL-0850_RLatLon0.09_PT012H.grib2 2026-04-30 14:42 805K
20260430T12Z_MSC_RDPS_WindSpeed_IsbL-0875_RLatLon0.09_PT012H.grib2 2026-04-30 14:42 824K
20260430T12Z_MSC_RDPS_WindSpeed_IsbL-0900_RLatLon0.09_PT012H.grib2 2026-04-30 14:42 841K
20260430T12Z_MSC_RDPS_WindSpeed_IsbL-0925_RLatLon0.09_PT012H.grib2 2026-04-30 14:42 849K
20260430T12Z_MSC_RDPS_WindSpeed_IsbL-0950_RLatLon0.09_PT012H.grib2 2026-04-30 14:42 849K
20260430T12Z_MSC_RDPS_WindSpeed_IsbL-0970_RLatLon0.09_PT012H.grib2 2026-04-30 14:42 850K
20260430T12Z_MSC_RDPS_WindSpeed_IsbL-0985_RLatLon0.09_PT012H.grib2 2026-04-30 14:42 844K
20260430T12Z_MSC_RDPS_WindSpeed_IsbL-1000_RLatLon0.09_PT012H.grib2 2026-04-30 14:42 838K
20260430T12Z_MSC_RDPS_WindSpeed_IsbL-1015_RLatLon0.09_PT012H.grib2 2026-04-30 14:42 828K
20260430T12Z_MSC_RDPS_WindU_AGL-10m_RLatLon0.09_PT012H.grib2 2026-04-30 14:42 427K
20260430T12Z_MSC_RDPS_WindU_AGL-120m_RLatLon0.09_PT012H.grib2 2026-04-30 14:42 528K
20260430T12Z_MSC_RDPS_WindU_AGL-40m_RLatLon0.09_PT012H.grib2 2026-04-30 14:42 531K
20260430T12Z_MSC_RDPS_WindU_AGL-80m_RLatLon0.09_PT012H.grib2 2026-04-30 14:42 530K
20260430T12Z_MSC_RDPS_WindU_IsbL-0001_RLatLon0.09_PT012H.grib2 2026-04-30 14:42 240K
20260430T12Z_MSC_RDPS_WindU_IsbL-0005_RLatLon0.09_PT012H.grib2 2026-04-30 14:42 281K
20260430T12Z_MSC_RDPS_WindU_IsbL-0010_RLatLon0.09_PT012H.grib2 2026-04-30 14:42 292K
20260430T12Z_MSC_RDPS_WindU_IsbL-0020_RLatLon0.09_PT012H.grib2 2026-04-30 14:42 307K
20260430T12Z_MSC_RDPS_WindU_IsbL-0030_RLatLon0.09_PT012H.grib2 2026-04-30 14:42 309K
20260430T12Z_MSC_RDPS_WindU_IsbL-0050_RLatLon0.09_PT012H.grib2 2026-04-30 14:42 337K
20260430T12Z_MSC_RDPS_WindU_IsbL-0100_RLatLon0.09_PT012H.grib2 2026-04-30 14:42 429K
20260430T12Z_MSC_RDPS_WindU_IsbL-0150_RLatLon0.09_PT012H.grib2 2026-04-30 14:42 401K
20260430T12Z_MSC_RDPS_WindU_IsbL-0175_RLatLon0.09_PT012H.grib2 2026-04-30 14:42 424K
20260430T12Z_MSC_RDPS_WindU_IsbL-0200_RLatLon0.09_PT012H.grib2 2026-04-30 14:42 440K
20260430T12Z_MSC_RDPS_WindU_IsbL-0225_RLatLon0.09_PT012H.grib2 2026-04-30 14:42 348K
20260430T12Z_MSC_RDPS_WindU_IsbL-0250_RLatLon0.09_PT012H.grib2 2026-04-30 14:42 350K
20260430T12Z_MSC_RDPS_WindU_IsbL-0275_RLatLon0.09_PT012H.grib2 2026-04-30 14:42 364K
20260430T12Z_MSC_RDPS_WindU_IsbL-0300_RLatLon0.09_PT012H.grib2 2026-04-30 14:42 360K
20260430T12Z_MSC_RDPS_WindU_IsbL-0350_RLatLon0.09_PT012H.grib2 2026-04-30 14:42 368K
20260430T12Z_MSC_RDPS_WindU_IsbL-0400_RLatLon0.09_PT012H.grib2 2026-04-30 14:42 370K
20260430T12Z_MSC_RDPS_WindU_IsbL-0450_RLatLon0.09_PT012H.grib2 2026-04-30 14:42 473K
20260430T12Z_MSC_RDPS_WindU_IsbL-0500_RLatLon0.09_PT012H.grib2 2026-04-30 14:42 475K
20260430T12Z_MSC_RDPS_WindU_IsbL-0550_RLatLon0.09_PT012H.grib2 2026-04-30 14:42 476K
20260430T12Z_MSC_RDPS_WindU_IsbL-0600_RLatLon0.09_PT012H.grib2 2026-04-30 14:42 484K
20260430T12Z_MSC_RDPS_WindU_IsbL-0650_RLatLon0.09_PT012H.grib2 2026-04-30 14:42 488K
20260430T12Z_MSC_RDPS_WindU_IsbL-0700_RLatLon0.09_PT012H.grib2 2026-04-30 14:42 513K
20260430T12Z_MSC_RDPS_WindU_IsbL-0750_RLatLon0.09_PT012H.grib2 2026-04-30 14:42 538K
20260430T12Z_MSC_RDPS_WindU_IsbL-0800_RLatLon0.09_PT012H.grib2 2026-04-30 14:42 700K
20260430T12Z_MSC_RDPS_WindU_IsbL-0850_RLatLon0.09_PT012H.grib2 2026-04-30 14:42 748K
20260430T12Z_MSC_RDPS_WindU_IsbL-0875_RLatLon0.09_PT012H.grib2 2026-04-30 14:42 766K
20260430T12Z_MSC_RDPS_WindU_IsbL-0900_RLatLon0.09_PT012H.grib2 2026-04-30 14:42 644K
20260430T12Z_MSC_RDPS_WindU_IsbL-0925_RLatLon0.09_PT012H.grib2 2026-04-30 14:42 649K
20260430T12Z_MSC_RDPS_WindU_IsbL-0950_RLatLon0.09_PT012H.grib2 2026-04-30 14:42 789K
20260430T12Z_MSC_RDPS_WindU_IsbL-0970_RLatLon0.09_PT012H.grib2 2026-04-30 14:42 788K
20260430T12Z_MSC_RDPS_WindU_IsbL-0985_RLatLon0.09_PT012H.grib2 2026-04-30 14:42 784K
20260430T12Z_MSC_RDPS_WindU_IsbL-1000_RLatLon0.09_PT012H.grib2 2026-04-30 14:42 779K
20260430T12Z_MSC_RDPS_WindU_IsbL-1015_RLatLon0.09_PT012H.grib2 2026-04-30 14:42 818K
20260430T12Z_MSC_RDPS_WindV_AGL-10m_RLatLon0.09_PT012H.grib2 2026-04-30 14:42 424K
20260430T12Z_MSC_RDPS_WindV_AGL-120m_RLatLon0.09_PT012H.grib2 2026-04-30 14:42 524K
20260430T12Z_MSC_RDPS_WindV_AGL-40m_RLatLon0.09_PT012H.grib2 2026-04-30 14:42 526K
20260430T12Z_MSC_RDPS_WindV_AGL-80m_RLatLon0.09_PT012H.grib2 2026-04-30 14:42 525K
20260430T12Z_MSC_RDPS_WindV_IsbL-0001_RLatLon0.09_PT012H.grib2 2026-04-30 14:42 242K
20260430T12Z_MSC_RDPS_WindV_IsbL-0005_RLatLon0.09_PT012H.grib2 2026-04-30 14:42 282K
20260430T12Z_MSC_RDPS_WindV_IsbL-0010_RLatLon0.09_PT012H.grib2 2026-04-30 14:42 294K
20260430T12Z_MSC_RDPS_WindV_IsbL-0020_RLatLon0.09_PT012H.grib2 2026-04-30 14:42 310K
20260430T12Z_MSC_RDPS_WindV_IsbL-0030_RLatLon0.09_PT012H.grib2 2026-04-30 14:42 313K
20260430T12Z_MSC_RDPS_WindV_IsbL-0050_RLatLon0.09_PT012H.grib2 2026-04-30 14:42 337K
20260430T12Z_MSC_RDPS_WindV_IsbL-0100_RLatLon0.09_PT012H.grib2 2026-04-30 14:42 424K
20260430T12Z_MSC_RDPS_WindV_IsbL-0150_RLatLon0.09_PT012H.grib2 2026-04-30 14:42 397K
20260430T12Z_MSC_RDPS_WindV_IsbL-0175_RLatLon0.09_PT012H.grib2 2026-04-30 14:42 422K
20260430T12Z_MSC_RDPS_WindV_IsbL-0200_RLatLon0.09_PT012H.grib2 2026-04-30 14:42 437K
20260430T12Z_MSC_RDPS_WindV_IsbL-0225_RLatLon0.09_PT012H.grib2 2026-04-30 14:42 443K
20260430T12Z_MSC_RDPS_WindV_IsbL-0250_RLatLon0.09_PT012H.grib2 2026-04-30 14:42 445K
20260430T12Z_MSC_RDPS_WindV_IsbL-0275_RLatLon0.09_PT012H.grib2 2026-04-30 14:42 361K
20260430T12Z_MSC_RDPS_WindV_IsbL-0300_RLatLon0.09_PT012H.grib2 2026-04-30 14:42 357K
20260430T12Z_MSC_RDPS_WindV_IsbL-0350_RLatLon0.09_PT012H.grib2 2026-04-30 14:42 366K
20260430T12Z_MSC_RDPS_WindV_IsbL-0400_RLatLon0.09_PT012H.grib2 2026-04-30 14:42 470K
20260430T12Z_MSC_RDPS_WindV_IsbL-0450_RLatLon0.09_PT012H.grib2 2026-04-30 14:42 470K
20260430T12Z_MSC_RDPS_WindV_IsbL-0500_RLatLon0.09_PT012H.grib2 2026-04-30 14:42 471K
20260430T12Z_MSC_RDPS_WindV_IsbL-0550_RLatLon0.09_PT012H.grib2 2026-04-30 14:42 473K
20260430T12Z_MSC_RDPS_WindV_IsbL-0600_RLatLon0.09_PT012H.grib2 2026-04-30 14:42 483K
20260430T12Z_MSC_RDPS_WindV_IsbL-0650_RLatLon0.09_PT012H.grib2 2026-04-30 14:42 485K
20260430T12Z_MSC_RDPS_WindV_IsbL-0700_RLatLon0.09_PT012H.grib2 2026-04-30 14:42 509K
20260430T12Z_MSC_RDPS_WindV_IsbL-0750_RLatLon0.09_PT012H.grib2 2026-04-30 14:42 532K
20260430T12Z_MSC_RDPS_WindV_IsbL-0800_RLatLon0.09_PT012H.grib2 2026-04-30 14:42 566K
20260430T12Z_MSC_RDPS_WindV_IsbL-0850_RLatLon0.09_PT012H.grib2 2026-04-30 14:42 609K
20260430T12Z_MSC_RDPS_WindV_IsbL-0875_RLatLon0.09_PT012H.grib2 2026-04-30 14:42 626K
20260430T12Z_MSC_RDPS_WindV_IsbL-0900_RLatLon0.09_PT012H.grib2 2026-04-30 14:42 641K
20260430T12Z_MSC_RDPS_WindV_IsbL-0925_RLatLon0.09_PT012H.grib2 2026-04-30 14:42 786K
20260430T12Z_MSC_RDPS_WindV_IsbL-0950_RLatLon0.09_PT012H.grib2 2026-04-30 14:42 785K
20260430T12Z_MSC_RDPS_WindV_IsbL-0970_RLatLon0.09_PT012H.grib2 2026-04-30 14:42 784K
20260430T12Z_MSC_RDPS_WindV_IsbL-0985_RLatLon0.09_PT012H.grib2 2026-04-30 14:42 779K
20260430T12Z_MSC_RDPS_WindV_IsbL-1000_RLatLon0.09_PT012H.grib2 2026-04-30 14:42 772K
20260430T12Z_MSC_RDPS_WindV_IsbL-1015_RLatLon0.09_PT012H.grib2 2026-04-30 14:42 812K